Location: Seasalter
(51.3333°N, 1.0167°E)
Time: 19:57:24
(UTC+00:00)

Cosmos 372 Rocket - Pass Details

Date: 26 September 2023
Orbit: 735 x 767 km, 74.1° (Epoch: 09 December)

Event Time Altitude Azimuth Distance (km) Brightness Sun altitude
Exits shadow 03:31:11 43° 205° (SSW) 1,031 4.3 -21.4°
Maximum altitude 03:32:53 89° 290° (WNW) 744 3.8 -21.2°
Drops below altitude 10° 03:38:01 10° 25° (NNE) 2,259 7.1 -20.5°
Sets 03:40:23 0° 25° (NNE) 3,190 8.0 -20.1°
